GW2517 Weather Reports


time (UTC)temp
C
wind
direction
speed
KPH
gust
KPH
rain 1hr
cm
rain 24hr
cm
rain mn
cm
humidity
%
barometer
mb
20260510225517 13 333 16.1 22.5 0.00 0.00 0.00 35 1018.6
20260510224534 12 330 16.1 20.9 0.00 0.00 0.00 36 1018.7
20260510223532 12 328 14.5 22.5 0.00 0.00 0.00 35 1018.7
20260510222528 12 328 16.1 24.1 0.00 0.00 0.00 36 1018.6
20260510221525 12 333 14.5 20.9 0.00 0.00 0.00 36 1018.5
20260510220522 12 331 14.5 24.1 0.00 0.00 0.00 36 1018.5
20260510215520 12 330 16.1 22.5 0.00 0.00 0.00 37 1018.4
20260510214516 12 327 14.5 20.9 0.00 0.00 0.00 36 1018.3
20260510213534 12 327 14.5 20.9 0.00 0.00 0.00 36 1018.3
20260510212531 12 329 16.1 22.5 0.00 0.00 0.00 37 1018.3
20260510211528 12 325 16.1 22.5 0.00 0.00 0.00 36 1018.4
20260510210546 12 329 14.5 17.7 0.00 0.00 0.00 34 1018.2
20260510205603 12 322 12.9 20.9 0.00 0.00 0.00 36 1018.1
20260510204520 12 332 14.5 22.5 0.00 0.00 0.00 37 1018.1
20260510203518 12 329 16.1 20.9 0.00 0.00 0.00 37 1018.2
20260510202535 12 312 16.1 22.5 0.00 0.00 0.00 35 1018.3
20260510201552 11 326 16.1 22.5 0.00 0.00 0.00 35 1018.4
20260510200529 11 326 16.1 22.5 0.00 0.00 0.00 38 1018.3
20260510195527 11 332 14.5 22.5 0.00 0.00 0.00 38 1018.4
20260510194523 11 321 11.3 19.3 0.00 0.00 0.00 37 1018.2
20260510193520 11 328 19.3 27.4 0.00 0.00 0.00 37 1018.3
20260510192518 11 330 19.3 29.0 0.00 0.00 0.00 37 1018.1
20260510191535 11 331 17.7 29.0 0.00 0.00 0.00 38 1018.1
20260510190532 12 334 16.1 25.7 0.00 0.00 0.00 38 1018.0
20260510185529 11 327 17.7 32.2 0.00 0.00 0.00 38 1018.0
20260510184527 11 318 17.7 25.7 0.00 0.00 0.00 37 1018.2
20260510183544 11 333 19.3 30.6 0.00 0.00 0.00 39 1018.0
20260510182521 11 327 19.3 30.6 0.00 0.00 0.00 38 1017.9
20260510181518 11 319 19.3 29.0 0.00 0.00 0.00 38 1018.0
20260510180516 11 333 19.3 30.6 0.00 0.00 0.00 38 1017.8
20260510175533 11 327 20.9 30.6 0.00 0.00 0.00 39 1018.0
20260510174530 11 334 22.5 37.0 0.00 0.00 0.00 39 1017.8
20260510173527 11 331 20.9 32.2 0.00 0.00 0.00 40 1017.8
20260510172525 11 333 22.5 35.4 0.00 0.00 0.00 39 1017.9
20260510171522 11 334 20.9 29.0 0.00 0.00 0.00 40 1017.6
20260510170519 11 336 22.5 33.8 0.00 0.00 0.00 41 1017.8
20260510165517 10 330 24.1 35.4 0.00 0.00 0.00 41 1017.9
20260510164533 10 332 22.5 33.8 0.00 0.00 0.00 41 1017.8
20260510163530 10 319 20.9 29.0 0.00 0.00 0.00 42 1018.1
20260510162529 10 320 17.7 30.6 0.00 0.00 0.00 43 1018.0
20260510161525 10 334 19.3 30.6 0.00 0.00 0.00 44 1017.8
20260510160542 10 329 22.5 35.4 0.00 0.00 0.00 43 1017.7
20260510155519 10 330 16.1 25.7 0.00 0.00 0.00 49 1017.5
20260510154516 10 332 17.7 27.4 0.00 0.00 0.00 50 1017.5
20260510153533 9 323 14.5 20.9 0.00 0.00 0.00 50 1017.4
20260510152531 9 335 14.5 24.1 0.00 0.00 0.00 55 1017.4
20260510151528 8 336 14.5 22.5 0.00 0.00 0.00 55 1017.3
20260510150525 9 337 16.1 22.5 0.00 0.00 0.00 55 1017.4
20260510145523 8 334 16.1 22.5 0.00 0.00 0.00 59 1017.3
20260510144520 8 333 16.1 24.1 0.00 0.00 0.00 59 1017.1
20260510143517 8 327 14.5 20.9 0.00 0.00 0.00 63 1017.2
20260510142534 8 335 16.1 24.1 0.00 0.00 0.00 63 1017.3
20260510141531 7 327 12.9 19.3 0.00 0.00 0.00 66 1017.2
20260510140528 7 323 16.1 22.5 0.00 0.00 0.00 67 1017.2
20260510135525 7 331 14.5 22.5 0.00 0.00 0.00 68 1017.1
20260510134522 7 334 12.9 19.3 0.00 0.00 0.00 70 1017.1
20260510133521 6 339 14.5 24.1 0.00 0.00 0.00 70 1017.1
20260510132517 6 340 12.9 20.9 0.00 0.00 0.00 70 1017.1
20260510131534 6 341 14.5 19.3 0.00 0.00 0.00 70 1017.0
20260510130531 6 336 12.9 17.7 0.00 0.00 0.00 70 1017.0
20260510125608 6 342 12.9 19.3 0.00 0.00 0.00 71 1017.0
20260510124545 6 342 11.3 17.7 0.00 0.00 0.00 72 1017.1
20260510123522 6 335 11.3 14.5 0.00 0.00 0.00 72 1016.9
20260510122600 5 334 9.7 14.5 0.00 0.00 0.00 75 1016.8
20260510121537 3 348 4.8 9.7 0.00 0.00 0.00 87 1016.7
20260510120534 2 24 3.2 4.8 0.00 0.00 0.00 89 1016.5
20260510115551 2 6 3.2 4.8 0.00 0.00 0.00 90 1016.4
20260510114528 1 25 3.2 3.2 0.00 0.00 0.00 90 1016.3
20260510113526 1 18 3.2 3.2 0.00 0.00 0.00 94 1016.3
20260510112523 1 13 3.2 4.8 0.00 0.00 0.00 94 1016.2
20260510111520 1 19 3.2 3.2 0.00 0.03 0.00 94 1016.0
20260510110517 1 39 1.6 3.2 0.00 0.10 0.00 93 1016.0
20260510105534 1 29 1.6 3.2 0.00 0.15 0.00 93 1015.7
20260510104531 1 28 3.2 4.8 0.00 0.23 0.00 92 1015.6
20260510103529 1 359 3.2 3.2 0.00 0.25 0.00 89 1015.5
20260510102526 3 359 3.2 4.8 0.00 0.28 0.00 81 1015.4
20260510101524 4 5 3.2 4.8 0.00 0.28 0.00 73 1015.3
20260510100520 5 343 8.0 12.9 0.00 0.28 0.00 67 1014.9
20260510095517 5 347 9.7 14.5 0.00 0.28 0.00 68 1014.9
20260510094535 1 344 6.4 16.1 0.00 0.28 0.00 84 1014.9
20260510093532 0 56 1.6 3.2 0.00 0.28 0.00 91 1014.8
20260510092529 0 28 4.8 6.4 0.00 0.28 0.00 90 1014.7
20260510091526 0 7 4.8 6.4 0.00 0.28 0.00 89 1014.5
20260510090523 0 22 3.2 6.4 0.00 0.28 0.00 90 1014.3
20260510085521 0 27 3.2 4.8 0.00 0.28 0.00 89 1014.2
20260510084518 0 12 3.2 4.8 0.00 0.28 0.00 89 1014.2
20260510083515 0 23 3.2 4.8 0.00 0.28 0.00 88 1014.1
20260510082532 0 16 4.8 4.8 0.00 0.28 0.00 88 1014.0
20260510081610 0 21 3.2 4.8 0.00 0.28 0.00 87 1013.9
20260510080527 0 20 3.2 4.8 0.00 0.28 0.00 87 1013.9
20260510075525 0 13 4.8 4.8 0.00 0.28 0.00 86 1013.8
20260510074541 0 13 3.2 4.8 0.00 0.28 0.00 86 1013.7
20260510073518 0 15 3.2 4.8 0.00 0.28 0.00 85 1013.6
20260510072515 1 14 3.2 4.8 0.00 0.28 0.00 84 1013.6
20260510071554 1 12 4.8 4.8 0.00 0.28 0.00 86 1013.6
20260510070530 1 11 3.2 4.8 0.00 0.28 0.00 86 1013.6
20260510065527 1 20 3.2 4.8 0.00 0.28 0.00 88 1013.5
20260510064524 2 33 1.6 3.2 0.00 0.28 0.00 85 1013.5
20260510063522 2 60 1.6 3.2 0.00 0.28 0.00 79 1013.4
20260510062519 2 39 1.6 3.2 0.00 0.28 0.00 78 1013.4
20260510061516 2 16 3.2 3.2 0.00 0.28 0.00 76 1013.3
20260510060533 2 12 3.2 4.8 0.00 0.28 0.00 75 1013.5
20260510055530 2 14 3.2 4.8 0.00 0.28 0.00 74 1013.3
20260510054527 3 9 3.2 4.8 0.00 0.28 0.00 72 1013.2
20260510053525 4 1 4.8 6.4 0.00 0.28 0.00 67 1013.1
20260510052522 5 360 4.8 6.4 0.00 0.28 0.00 66 1013.0
20260510051520 6 353 6.4 9.7 0.00 0.28 0.00 58 1012.9
20260510050556 6 349 8.0 12.9 0.00 0.28 0.00 55 1012.9
20260510045534 6 348 8.0 12.9 0.00 0.28 0.28 56 1012.8
20260510044551 6 344 9.7 11.3 0.00 0.28 0.28 55 1012.8
20260510043528 7 345 9.7 12.9 0.00 0.28 0.28 53 1012.8
20260510042526 7 341 9.7 12.9 0.00 0.28 0.28 52 1012.7
20260510041522 8 338 11.3 16.1 0.00 0.28 0.28 49 1012.7
20260510040519 8 333 12.9 17.7 0.00 0.28 0.28 49 1012.7
20260510035517 8 333 14.5 19.3 0.00 0.28 0.28 48 1012.5
20260510034534 8 335 12.9 19.3 0.00 0.28 0.28 49 1012.4
20260510033531 7 343 9.7 12.9 0.00 0.28 0.28 54 1012.2
20260510032528 7 346 8.0 9.7 0.00 0.28 0.28 50 1012.1
20260510031545 7 346 9.7 12.9 0.00 0.28 0.28 50 1012.0
20260510030544 7 349 9.7 12.9 0.00 0.28 0.28 53 1011.8
20260510025520 6 352 8.0 9.7 0.00 0.28 0.28 54 1011.6
20260510024517 7 351 8.0 9.7 0.00 0.28 0.28 54 1011.3
20260510023534 7 350 9.7 11.3 0.00 0.28 0.28 50 1011.1
20260510022531 7 353 8.0 9.7 0.00 0.28 0.28 54 1011.0
20260510021529 7 341 9.7 11.3 0.00 0.28 0.28 50 1010.8
20260510020526 9 341 9.7 12.9 0.00 0.28 0.28 45 1010.6
20260510015524 9 338 11.3 16.1 0.00 0.28 0.28 44 1010.5
20260510014540 10 334 12.9 17.7 0.00 0.28 0.28 42 1010.2
20260510013517 10 333 12.9 16.1 0.00 0.28 0.28 40 1010.1
20260510012535 11 330 12.9 19.3 0.00 0.28 0.28 40 1009.8
20260510011532 11 332 14.5 20.9 0.00 0.28 0.28 39 1009.5
20260510010529 11 329 17.7 22.5 0.00 0.28 0.28 37 1009.4
20260510005526 11 329 14.5 19.3 0.00 0.28 0.28 38 1009.4
20260510004544 12 330 16.1 22.5 0.00 0.28 0.28 38 1009.3
20260510003520 12 332 16.1 20.9 0.00 0.28 0.28 38 1009.2
20260510002518 12 331 16.1 19.3 0.00 0.28 0.28 38 1009.0
20260510001535 12 325 17.7 24.1 0.00 0.28 0.28 37 1008.9
20260510000553 12 326 17.7 24.1 0.00 0.28 0.28 37 1008.8
20260509235529 13 327 17.7 22.5 0.00 0.28 0.28 36 1008.7
20260509234527 13 324 17.7 29.0 0.00 0.28 0.28 36 1008.5
20260509233525 13 324 19.3 25.7 0.00 0.28 0.28 36 1008.4
20260509232521 13 320 19.3 29.0 0.00 0.28 0.28 36 1008.3
20260509231519 13 322 17.7 27.4 0.00 0.28 0.28 36 1008.2
20260509230556 13 322 19.3 27.4 0.00 0.28 0.28 35 1008.0